[[{"header":{"parameterUnit":"m.s-1","parameterCategory":1,"la1":30.2991,"la2":30.254,"lo1":-89.0895,"lo2":-89.0444,"dy":0.0017,"dx":0.0017,"nx":28,"ny":28,"refTime":"2024-10-21T21:00:00:Z","depth":0,"parameterNumber":2,"parameterNumberName":"U-component_of_WINDS"},"data":[0,0,0,0,0,0,0,0,0,0,0,0,0,0,0,0,0,0,0,0,0,0,0,0,0,0,0,0,0,0,0,0,0,0,0,0,0,0,0,0,0,0,0,0,0,0,0,0,0,0,0,0,0,0,0,0,0,0,-2.2581,-2.2582,0,-2.2705,-2.2707,-2.2708,-2.267,-2.2667,-2.2665,-2.2662,-2.2789,-2.2794,-2.28,0,0,0,0,0,0,0,0,0,0,0,0,0,-2.231,-2.2315,-2.2581,-2.2582,-2.2584,-2.2705,-2.2707,-2.2708,-2.267,-2.2667,-2.2664,-2.2661,-2.2787,-2.2794,-2.2801,0,0,0,0,0,0,0,0,0,0,0,0,0,-2.243,-2.2316,-2.258,-2.2579,-2.2581,-2.2705,-2.2707,-2.2709,-2.2671,-2.2667,-2.2663,-2.266,-2.2784,-2.2793,-2.2801,-2.2934,0,0,-2.2828,-2.2832,0,0,0,0,0,0,0,0,-2.2423,-2.244,-2.2578,-2.258,-2.2581,-2.2668,-2.2657,-2.2784,-2.2672,-2.2637,-2.2662,-2.2658,-2.2752,-2.2763,-2.2795,-2.294,-2.2945,-2.2829,-2.2834,-2.2838,-2.284,0,0,0,0,0,0,0,-2.2415,-2.2434,-2.263,-2.258,-2.2582,-2.2573,-2.2586,-2.2681,-2.2715,-2.2639,-2.2637,-2.2652,-2.2752,-2.2786,-2.2797,-2.2947,-2.2829,-2.2836,-2.2842,-2.2845,-2.3209,-2.3213,0,0,0,0,0,0,-2.2406,-2.2428,-2.2626,-2.2634,-2.2491,-2.2581,-2.2595,-2.2644,-2.2713,-2.272,-2.2656,-2.265,-2.2773,-2.2787,-2.2802,-2.2963,-2.2838,-2.2846,-2.2851,-2.3205,-2.321,-2.3215,0,0,0,0,0,0,-2.24,-2.2424,-2.2621,-2.253,-2.2555,-2.259,-2.2645,-2.2649,-2.2683,-2.2726,-2.2731,-2.2685,-2.2771,-2.2789,-2.2902,-2.2967,-2.285,-2.2858,-2.3199,-2.3206,-2.3212,-2.3287,0,0,0,0,0,0,-2.2392,-2.2422,-2.2473,-2.2532,-2.256,-2.2719,-2.2649,-2.2654,-2.2699,-2.2693,-2.2755,-2.2761,-2.2769,-2.2889,-2.2911,-2.2977,-2.2865,-2.3194,-2.3202,-2.321,-2.3278,-2.3295,-2.3309,0,0,0,0,0,-2.2383,-2.2488,-2.2475,-2.2499,-2.2624,-2.2723,-2.2739,-2.2747,-2.2704,-2.2756,-2.2783,-2.2759,-2.2956,-2.2901,-2.2925,-2.2995,-2.319,-2.32,-2.321,-2.3272,-2.3292,-2.3309,0,0,0,0,0,0,-2.2434,-2.2495,-2.2482,-2.2609,-2.2662,-2.2717,-2.2782,-2.2767,-2.2832,-2.2824,-2.283,-2.2844,-2.296,-2.2988,-2.2926,-2.3128,-2.3067,-2.3082,-2.3106,-2.3125,-2.314,-2.3132,-2.2872,0,0,0,0,0,-2.246,-2.2537,-2.2585,-2.2693,-2.272,-2.2746,-2.279,-2.2791,-2.2845,-2.2867,-2.2903,-2.2956,-2.303,-2.3078,-2.3149,-2.3281,-2.3296,-2.3342,-2.3357,-2.3369,-2.3383,-2.3458,-2.348,-2.3248,-2.3248,-2.3247,0,0,-2.2515,-2.2558,-2.2605,-2.2704,-2.2745,-2.2824,-2.2765,-2.285,-2.291,-2.288,-2.2989,-2.3017,-2.3077,-2.3201,-2.3257,-2.3228,-2.345,-2.3382,-2.3391,-2.3399,-2.347,-2.3492,-2.3512,-2.3255,-2.3253,-2.3252,0,0,-2.2656,-2.2695,-2.2791,-2.2833,-2.2896,-2.2913,-2.2936,-2.2993,-2.3011,-2.3121,-2.3101,-2.3171,-2.3297,-2.3342,-2.3381,-2.354,-2.3522,-2.3563,-2.3643,-2.3716,-2.3735,-2.3751,-2.381,-2.3831,-2.3576,-2.3576,-2.3576,0,-2.2717,-2.2835,-2.2841,-2.293,-2.2974,-2.2952,-2.3049,-2.3089,-2.3171,-2.3203,-2.3168,-2.3329,-2.3367,-2.3502,-2.3542,-2.3573,-2.36,-2.3557,-2.3731,-2.3748,-2.3763,-2.382,-2.3842,-2.3581,-2.358,-2.358,-2.3579,0,-2.2908,-2.299,-2.306,-2.3141,-2.3193,-2.3285,-2.3305,-2.3358,-2.3354,-2.3375,-2.3488,-2.3534,-2.3614,-2.3645,-2.3642,-2.3781,-2.3762,-2.3729,-2.3669,-2.379,-2.3844,-2.3865,-2.3588,-2.3586,-2.3584,-2.3583,0,0,-2.3085,-2.317,-2.3195,-2.3233,-2.3301,-2.3365,-2.3457,-2.3536,-2.3582,-2.3639,-2.3717,-2.3825,-2.3797,-2.3841,-2.3843,-2.3906,-2.4033,-2.3867,-2.3868,-2.3898,-2.4192,-2.4217,-2.4242,-2.402,-2.4024,-2.4028,-2.4187,0,-2.3234,-2.3396,-2.3404,-2.3552,-2.3629,-2.3609,-2.3689,-2.374,-2.3762,-2.3831,-2.3854,-2.3933,-2.3887,-2.3915,-2.3976,-2.4005,-2.4092,-2.3993,-2.4094,-2.4098,-2.4083,-2.427,-2.4297,-2.4446,-2.4208,-2.4212,-2.4214,0,-2.343,-2.3495,-2.3651,-2.371,-2.3743,-2.3814,-2.3889,-2.3955,-2.4012,-2.4023,-2.4074,-2.4067,-2.4161,-2.4096,-2.4227,-2.4159,-2.4201,-2.4221,-2.4227,-2.4238,-2.4165,-2.4289,-2.4493,-2.4516,-2.4247,-2.4244,-2.4242,0,-2.3547,-2.3674,-2.3784,-2.3816,-2.3887,-2.3939,-2.397,-2.4024,-2.4072,-2.4136,-2.4168,-2.4242,-2.4283,-2.4341,-2.4355,-2.4305,-2.4486,-2.4421,-2.45,-2.45,-2.4541,-2.4539,-2.4757,-2.4564,-2.4563,-2.4563,-2.4562,0,-2.3714,-2.3811,-2.3838,-2.3906,-2.4014,-2.4022,-2.4129,-2.4157,-2.4205,-2.4279,-2.4264,-2.4333,-2.4346,-2.4418,-2.4429,-2.4537,-2.4555,-2.4568,-2.457,-2.4571,-2.457,-2.46,-2.4591,-2.4569,-2.4567,-2.4566,-2.4565,0,-2.3864,-2.3886,-2.4006,-2.4063,-2.408,-2.4158,-2.4207,-2.4273,-2.4293,-2.4386,-2.4409,-2.4441,-2.4525,-2.4544,-2.4644,-2.4651,-2.478,-2.4771,-2.4762,-2.4762,-2.4841,-2.4834,-2.5088,-2.5123,-2.4904,-2.4906,-2.4908,0,-2.3971,-2.4045,-2.4112,-2.416,-2.4195,-2.4273,-2.4323,-2.4333,-2.4385,-2.4457,-2.4515,-2.4597,-2.4665,-2.48,-2.4833,-2.4909,-2.4903,-2.4987,-2.4915,-2.4914,-2.4908,-2.4904,-2.4913,-2.5002,-2.5004,-2.5006,-2.5007,0,-2.4158,-2.4166,-2.4238,-2.4315,-2.4374,-2.4435,-2.4492,-2.4533,-2.4552,-2.4611,-2.4698,-2.475,-2.4853,-2.4936,-2.5013,-2.5045,-2.5031,-2.503,-2.5052,-2.5055,-2.5048,-2.5056,-2.4802,-2.5024,-2.5023,-2.5021,-2.502,-2.502,-2.4292,-2.4358,-2.4416,-2.4497,-2.4542,-2.4597,-2.4662,-2.4691,-2.4764,-2.4849,-2.4851,-2.4946,-2.5003,-2.5105,-2.5142,-2.5217,-2.5191,-2.5223,-2.5232,-2.5241,-2.5249,-2.5034,-2.523,-2.523,-2.523,-2.5229,-2.5229,0,-2.4481,-2.4517,-2.4592,-2.4674,-2.4739,-2.4719,-2.4782,-2.4837,-2.4922,-2.4976,-2.5043,-2.5143,-2.5224,-2.5263,-2.5343,-2.5396,-2.5392,-2.5417,-2.5415,-2.5423,-2.5266,-2.524,-2.542,-2.542,-2.542,-2.5419,-2.5419,-2.5419,-2.4587,-2.4699,-2.4713,-2.4848,-2.4883,-2.4977,-2.5016,-2.5066,-2.511,-2.5224,-2.5291,-2.5316,-2.5365,-2.5449,-2.5522,-2.5532,-2.5563,-2.5593,-2.5599,-2.5453,-2.5433,-2.5415,-2.539,-2.5599,-2.5599,-2.575,-2.5751,-2.5752]},{"header":{"parameterUnit":"m.s-1","parameterCategory":1,"la1":30.2991,"la2":30.254,"lo1":-89.0895,"lo2":-89.0444,"dy":0.0017,"dx":0.0017,"nx":28,"ny":28,"refTime":"2024-10-21T21:00:00:Z","depth":0,"parameterNumber":3,"parameterNumberName":"V-component_of_WINDS"},"data":[0,0,0,0,0,0,0,0,0,0,0,0,0,0,0,0,0,0,0,0,0,0,0,0,0,0,0,0,0,0,0,0,0,0,0,0,0,0,0,0,0,0,0,0,0,0,0,0,0,0,0,0,0,0,0,0,0,0,-1.9686,-1.9686,0,-1.9667,-1.9667,-1.9667,-1.9638,-1.9638,-1.9637,-1.9637,-1.9617,-1.9617,-1.9617,0,0,0,0,0,0,0,0,0,0,0,0,0,-1.9696,-1.9696,-1.9686,-1.9686,-1.9685,-1.9667,-1.9667,-1.9667,-1.9638,-1.9638,-1.9637,-1.9637,-1.9617,-1.9617,-1.9617,0,0,0,0,0,0,0,0,0,0,0,0,0,-1.9686,-1.9696,-1.9686,-1.9669,-1.9667,-1.9667,-1.9667,-1.9667,-1.9639,-1.9638,-1.9637,-1.9636,-1.9617,-1.9617,-1.9617,-1.9632,0,0,-1.9617,-1.9617,0,0,0,0,0,0,0,0,-1.9686,-1.9685,-1.9672,-1.967,-1.9668,-1.9654,-1.9663,-1.9655,-1.9639,-1.965,-1.9637,-1.9636,-1.963,-1.9629,-1.9627,-1.9631,-1.963,-1.9617,-1.9617,-1.9617,-1.9617,0,0,0,0,0,0,0,-1.9687,-1.9686,-1.9678,-1.9672,-1.967,-1.9662,-1.966,-1.9662,-1.9644,-1.9649,-1.9646,-1.9645,-1.9629,-1.9627,-1.9627,-1.963,-1.9617,-1.9617,-1.9617,-1.9617,-1.9643,-1.9643,0,0,0,0,0,0,-1.969,-1.9687,-1.9679,-1.9678,-1.9676,-1.9662,-1.966,-1.966,-1.9644,-1.9641,-1.9645,-1.9643,-1.9628,-1.9627,-1.9626,-1.964,-1.9617,-1.9617,-1.9617,-1.9642,-1.9643,-1.9643,0,0,0,0,0,0,-1.9691,-1.969,-1.968,-1.9682,-1.968,-1.9663,-1.9663,-1.966,-1.9658,-1.9642,-1.9639,-1.9647,-1.9627,-1.9626,-1.963,-1.9639,-1.9617,-1.9617,-1.9641,-1.9642,-1.9643,-1.9671,0,0,0,0,0,0,-1.9691,-1.969,-1.9696,-1.9682,-1.968,-1.9685,-1.9664,-1.966,-1.9658,-1.9655,-1.9642,-1.9639,-1.9627,-1.963,-1.963,-1.9639,-1.9617,-1.964,-1.9641,-1.9643,-1.9669,-1.9673,-1.9676,0,0,0,0,0,-1.9691,-1.9705,-1.9696,-1.9696,-1.9687,-1.9686,-1.9684,-1.9669,-1.9659,-1.9664,-1.9653,-1.964,-1.9639,-1.9631,-1.963,-1.9639,-1.9639,-1.9641,-1.9643,-1.9668,-1.9672,-1.9676,0,0,0,0,0,0,-1.9721,-1.9703,-1.9693,-1.9703,-1.9696,-1.9681,-1.9687,-1.9675,-1.9671,-1.9669,-1.965,-1.9648,-1.9654,-1.9647,-1.9639,-1.9652,-1.9637,-1.9638,-1.9656,-1.966,-1.9664,-1.9665,-1.9617,0,0,0,0,0,-1.9728,-1.9729,-1.9713,-1.9723,-1.972,-1.9704,-1.9703,-1.9692,-1.9684,-1.9681,-1.9671,-1.9664,-1.9662,-1.9661,-1.9658,-1.9668,-1.9664,-1.9674,-1.9677,-1.968,-1.9682,-1.9685,-1.9689,-1.9649,-1.9649,-1.9649,0,0,-1.9744,-1.9734,-1.9736,-1.9729,-1.9722,-1.9723,-1.9702,-1.9704,-1.9704,-1.9682,-1.9685,-1.9677,-1.9667,-1.9674,-1.9677,-1.9669,-1.9692,-1.9682,-1.9685,-1.9685,-1.9687,-1.9691,-1.9694,-1.965,-1.965,-1.965,0,0,-1.9772,-1.9766,-1.9772,-1.9766,-1.9756,-1.9745,-1.9747,-1.9733,-1.9727,-1.973,-1.9713,-1.9712,-1.9709,-1.9702,-1.9699,-1.9723,-1.971,-1.9723,-1.9741,-1.9744,-1.9747,-1.975,-1.9757,-1.976,-1.9724,-1.9724,-1.9724,0,-1.9793,-1.9794,-1.9777,-1.978,-1.9777,-1.9756,-1.9762,-1.9756,-1.9746,-1.9744,-1.9735,-1.973,-1.9722,-1.9726,-1.9732,-1.973,-1.9731,-1.9724,-1.9748,-1.9751,-1.9753,-1.976,-1.9763,-1.9726,-1.9726,-1.9726,-1.9725,0,-1.9819,-1.9819,-1.9826,-1.9816,-1.9813,-1.9818,-1.9801,-1.9801,-1.979,-1.9779,-1.9782,-1.9771,-1.9765,-1.9766,-1.9755,-1.9768,-1.9763,-1.9752,-1.9736,-1.9758,-1.9764,-1.9767,-1.9728,-1.9728,-1.9727,-1.9727,0,0,-1.9866,-1.9846,-1.9848,-1.9843,-1.983,-1.983,-1.9832,-1.9826,-1.9826,-1.9819,-1.982,-1.9817,-1.9806,-1.9802,-1.979,-1.9793,-1.9811,-1.9781,-1.978,-1.9786,-1.9823,-1.9831,-1.9834,-1.9802,-1.9803,-1.9803,-1.9823,0,-1.9891,-1.9895,-1.988,-1.9887,-1.9887,-1.9866,-1.9868,-1.986,-1.985,-1.9848,-1.9837,-1.9835,-1.9821,-1.9818,-1.982,-1.9809,-1.9818,-1.9807,-1.9802,-1.9802,-1.9804,-1.9838,-1.9847,-1.9866,-1.9826,-1.9826,-1.9826,0,-1.9921,-1.9915,-1.9923,-1.9908,-1.9907,-1.9909,-1.9902,-1.99,-1.989,-1.9882,-1.9877,-1.9863,-1.9863,-1.9849,-1.9849,-1.9841,-1.9838,-1.9832,-1.9833,-1.9831,-1.9815,-1.9836,-1.9872,-1.9875,-1.983,-1.983,-1.9829,0,-1.9953,-1.9947,-1.9951,-1.9947,-1.993,-1.9931,-1.9924,-1.9913,-1.991,-1.9903,-1.9901,-1.9894,-1.989,-1.9885,-1.9869,-1.9861,-1.9871,-1.9855,-1.9863,-1.9864,-1.9866,-1.9866,-1.9902,-1.9866,-1.9866,-1.9866,-1.9866,0,-1.9983,-1.9988,-1.9965,-1.9967,-1.9971,-1.9953,-1.9958,-1.9949,-1.9939,-1.9938,-1.992,-1.9919,-1.9899,-1.9896,-1.9884,-1.9884,-1.9883,-1.9876,-1.9873,-1.9878,-1.9878,-1.9875,-1.9873,-1.9867,-1.9866,-1.9866,-1.9866,0,-2.0019,-2.0004,-2.0006,-1.9989,-1.9985,-1.9989,-1.9975,-1.9975,-1.9964,-1.9963,-1.9961,-1.9944,-1.9939,-1.9922,-1.9914,-1.9905,-1.991,-1.9904,-1.9913,-1.9911,-1.992,-1.9919,-1.9953,-1.9956,-1.992,-1.992,-1.9921,0,-2.0039,-2.0042,-2.0025,-2.0023,-2.0017,-2.0014,-2.0011,-1.9993,-1.9989,-1.9977,-1.9979,-1.9972,-1.9966,-1.9959,-1.9945,-1.9938,-1.9931,-1.9943,-1.993,-1.9934,-1.993,-1.9929,-1.9929,-1.9946,-1.9947,-1.9947,-1.9948,0,-2.0075,-2.0067,-2.0062,-2.0055,-2.0051,-2.0044,-2.0036,-2.0035,-2.0015,-2.0012,-2.0007,-2.0002,-1.9992,-1.9986,-1.9976,-1.9968,-1.9954,-1.9952,-1.9953,-1.9958,-1.9963,-1.9959,-1.992,-1.9951,-1.9951,-1.9951,-1.995,-1.995,-2.0103,-2.0104,-2.0092,-2.0087,-2.0079,-2.0072,-2.0071,-2.0059,-2.0054,-2.0045,-2.0035,-2.003,-2.0018,-2.0003,-1.9996,-1.9992,-1.9984,-1.9987,-1.9987,-1.9988,-1.9989,-1.9964,-1.999,-1.999,-1.999,-1.999,-1.9989,0,-2.0136,-2.0127,-2.0123,-2.0112,-2.0108,-2.0095,-2.0086,-2.0083,-2.0079,-2.0069,-2.0063,-2.0056,-2.0049,-2.0034,-2.0025,-2.0024,-2.0018,-2.0023,-2.0022,-2.002,-1.9997,-1.9996,-2.0028,-2.0028,-2.0028,-2.0028,-2.0028,-2.0028,-2.0154,-2.0155,-2.0145,-2.0141,-2.0132,-2.0128,-2.0123,-2.0115,-2.0107,-2.01,-2.0094,-2.0084,-2.0072,-2.0062,-2.0054,-2.005,-2.0047,-2.0054,-2.0047,-2.0026,-2.0022,-2.0019,-2.0018,-2.0054,-2.0054,-2.0071,-2.0071,-2.0071]}]]